961  
ASUS44 KSHV 291610  
RWRSHV  
 
WEATHER ROUNDUP FOR THE FOUR STATE AREA  
NATIONAL WEATHER SERVICE SHREVEPORT LA  
1100 AM CDT WED MAR 29 2017  
 
NOTE: "FAIR" INDICATES FEW OR NO CLOUDS BELOW 12000 FEET  
WITH NO SIGNIFICANT WEATHER AND/OR S TO VISIBILITY
.  
 
!LAZ001-LAZ014-TXZ097-291700  
SHREVEPORT...MONROE...TEXARKANA RADIOS  
 
CITY SKY/WX TMP DP RH WIND PRES REMARKS
 
SHREVEPORT CLOUDY 70 65 84 SE17 29.83F  
MONROE PTSUNNY 77 65 66 S13G21 29.93R  
NATCHITOCHES CLOUDY 76 66 71 SE10 29.89F  
TEXARKANA CLOUDY 64 62 93 SE12 29.80F  

 
 
!LAZ001-LAZ014-TXZ097-291700  
OTHER LOCATIONS...  
 
CITY SKY/WX TMP DP RH WIND PRES REMARKS
 
DOWNTOWN SHV CLOUDY 70 62 76 SE15 29.83F  
BOSSIER CITY CLOUDY 69 65 87 SE12 29.85F  
RUSTON CLOUDY 76 62 62 S13 29.96R  
LITTLE ROCK CLOUDY 72 65 78 S9 29.88F  
EL DORADO MOSUNNY 69 65 86 SE7 29.90S  
JACKSON MOSUNNY 76 62 62 S12 30.01F  
NEW ORLEANS PTSUNNY 78 66 66 S12 30.01R  
HOUSTON TSTM 71 68 90 VRB7 29.86R VSB 1/2  
LUFKIN LGT RAIN 65 63 93 S9 29.90S  
TYLER CLOUDY 65 62 90 S9 29.79S  
DAL FT WORTH MOSUNNY 70 58 65 S22 29.71R  

 
 
!TXZ136-TXZ165-291700  
TYLER...LUFKIN RADIOS  
 
CITY SKY/WX TMP DP RH WIND PRES REMARKS
 
TYLER CLOUDY 65 62 90 S9 29.79S  
GILMER CLOUDY 64 60 86 S7 29.80S  
LONGVIEW CLOUDY 65 62 90 SE15G24 29.75S  
LUFKIN LGT RAIN 65 63 93 S9 29.90S  

 
 
!TXZ136-TXZ165-291700  
OTHER LOCATIONS...  
 
CITY SKY/WX TMP DP RH WIND PRES REMARKS
 
NACOGDOCHES CLOUDY 64 61 88 SE18G31 29.75F  
BEAUMONT MOSUNNY 81 68 64 SE16 29.86S  
HOUSTON TSTM 71 68 90 VRB7 29.86R VSB 1/2  
COLLEGE STN PTSUNNY 70 66 87 SE8 29.79S  
AUSTIN MOSUNNY 69 63 81 S3 29.81R  
DAL FT WORTH MOSUNNY 70 58 65 S22 29.71R  
TEXARKANA CLOUDY 64 62 93 SE12 29.80F  
SHREVEPORT CLOUDY 70 65 84 SE17 29.83F  
FORT POLK PTSUNNY 77 63 61 SE18 29.89F  
LAKE CHARLES PTSUNNY 80 66 62 SE18 29.90S  

 
 
 
CLICK HERE TO GO TO PREVIOUS BULLETINS.

The Nexlab LA Page
The Nexlab TX Page
The Nexlab AR Page
The Nexlab OK Page Main Text Page